User: anonymous   Login
Location: Ellerstadt
(49.4644°N, 8.2615°E)
Time: 17:56:31
(UTC+00:00)
Language:

Lacrosse 4 Rocket - Orbit

View from above orbital plane
View from above orbital plane
View from above satellite
View from above satellite

Ground track
Ground track

The orbit data is extracted from the following two-line orbital elements,

1 26474U 00047B   21129.51364984  .00000101  00000-0  19636-4 0  9990
2 26474  67.9936 258.0716 0057940 203.5801 156.2684 14.96139895128095
Epoch (UTC): 09 May 2021 12:19:39
Eccentricity: 0.0057940
inclination: 67.9936°
perigee height: 538 km
apogee height: 619 km
right ascension of ascending node: 258.0716°
argument of perigee: 203.5801°
revolutions per day: 14.96139895
mean anomaly at epoch: 156.2684°
orbit number at epoch: 12809

The dashed part of the orbit path shows where the satellite is in the earth's shadow,  

DLR